COSMOS 1275 DEB, 12694

Orbit data source: Space-Track

COSMOS 1275 DEB, 12694 is space debris in LEO originally from a launch on Thu, 04 Jun 1981 UTC launched from the Plesetsk Missile And Space Complex (PKMTR). Debris objects in space refer to the collection of defunct objects orbiting the Earth. Examples of debris include non-operational satellites, rocket bodies, and fragments generated from explosions, collisions, or faulty payload assembly.

Loading next visibility...
COSMOS 1275 DEB details
Identifier
12694, 1981-053AN
Orbit
LEO
Last TLE update6 hours ago
Origin
Flag of CISVMF (CIS)
ManufacturerUnknown
MissionSpacecraft
Bus & MotorUnknown
MassUnknown
Launch date (UTC)
1981-06-04 (44 years ago)
Launch vehicleUnknown
Launch site
Plesetsk Missile And Space Complex (PKMTR)
Object type
Payload
Rocket body
Debris
Shape & HBRUnknown
Radar Cross SectionSmall (<0.1 m²)

Expand to show TLE details & history

TLE from 6 hours ago
0 COSMOS 1275 DEB
1 12694U 81053AN  24361.28956250  .00001064  00000-0  13102-2 0  9992
2 12694  83.0816 122.1464 0114710 276.3963 149.2730 13.61797849149746
Epoch: 2024-12-26T06:56Z
Definitive object data (Epoch: 2024-12-26T06:56:58.2Z)
Latitude65.48107°
Longitude-62.02019°
Altitude1,113.782 km
Speed7.265 km/s
True Right ascension09h 09m 58s
True Declination65° 21' 26"
Sunlit
Object was in full shadow at TLE epoch
Visualization TLE readout
Latitude43.96501°
Longitude95.77963°
Altitude1,100.445 km
Speed7.274 km/s
Apparent Right ascension21h 42m 08s
Apparent Declination7° 10' 03"
Sunlit
Object is in daylight
Visualization observer readout
Local Sidereal Time11:56:44
Azimuth41.31° NE
Elevation-33.6°
Doppler factor1
Orbital elements
Apogee altitude1,111.263 km
Perigee altitude941.39 km
Semi-major axis7,404.464 km
Eccentricity0.011471
Inclination83.0816°
RAAN122.1464°
Arg. of periapsis276.3963°
True anomaly149.93643°
Mean anomaly149.273°
Eccentric anomaly149.60553°
Mean motion3.40646 °/min
BSTAR0.0013102
Orbital period105.68 mins
Loading maneuver chart data...
Loading historical data...
Loading historical data...
Loading historical data...
Loading historical data...
Loading historical data...
Loading historical data...
Loading historical data...

COSMOS 1275 DEB Visibility forecast

Observer location: undefined°, undefined

Span
Click to sort rows by Start time (UTC) header in descending order
Start Az.
Max El. time (UTC)
Max El. Az.
Max El.
End time (UTC)
End Az.
12 mins2024-12-26 19:33:12.684Z7.015° NNE2024-12-26 19:39:12.684Z76.778° E35.27°2024-12-26 19:45:12.684Z147.452° SSE
9 mins2024-12-26 21:21:12.684Z323.691° NNW2024-12-26 21:25:12.684Z278.496° WNW26.315°2024-12-26 21:30:12.684Z222.225° SW
6 mins2024-12-27 07:28:12.684Z104.819° ESE2024-12-27 07:30:12.684Z84.609° E16.515°2024-12-27 07:34:12.684Z46.02° ENE
11 mins2024-12-27 09:11:12.684Z194.763° SSW2024-12-27 09:16:12.684Z270.507° WNW43.85°2024-12-27 09:22:12.684Z2.242° NNE
|